Tracking 20942 objects as of 15-Jul-2020
HD Live streaming from Space Station
objects crossing your sky now

COSMOS 1176 COOLANT

Track COSMOS 1176 COOLANT now!
10-day predictions


NORAD ID: 27568
Int'l Code: 1980-034E
Perigee: 843.4 km
Apogee: 902.3 km
Inclination: 64.8 °
Period: 102.3 minutes
Semi major axis: 7243 km
RCS: 0.012 m2 (small)
Launch date: April 29, 1980
Source: Commonwealth of Independent States (former USSR) (CIS)
Launch site: TYURATAM MISSILE AND SPACE COMPLEX (TTMTR)

Note: This is SATELLITE DEBRIS
aabbcc
Your satellite tracking list
Your tracking list is empty




NASA's NSSDC Master Catalog

Two Line Element Set (TLE):
1 27568U 80034E   20196.45457148 +.00000009 +00000-0 +61048-4 0  9991
2 27568 064.8216 253.7057 0040676 201.2950 158.6430 14.08151365375914
Source of the keplerian elements: AFSPC